BAW2158 TTCP-TLPL

Flight info

Callsign BAW2158
Flight time 0h 32m
Altitude 19000
Route RIBOR DCT BNE
Aircraft B772/H-SDE2E3FGHIJ5LORVWXY/LB1D1

Departure

Time 2026-04-25 15:16
Airport A.N.R. Robinson International Airport (TTCP)

Arrival

Time 2026-04-25 15:48
Airport Hewanorra International Airport (TLPL)
Time Latitude Longitude Altitude Speed Heading
2026-04-25 15:12 11.15115 -60.83912 39 ft 0 kts 274°
2026-04-25 15:14 11.15116 -60.83931 39 ft 15 kts 273°
2026-04-25 15:14 11.15122 -60.84068 39 ft 1 kts 268°
2026-04-25 15:15 11.15079 -60.84159 38 ft 21 kts 216°
2026-04-25 15:15 11.15027 -60.84073 38 ft 42 kts 92°
2026-04-25 15:15 11.14985 -60.83453 40 ft 130 kts 94°
2026-04-25 15:15 11.14903 -60.82375 421 ft 160 kts 96°
2026-04-25 15:16 11.14759 -60.81203 1033 ft 172 kts 96°
2026-04-25 15:16 11.14721 -60.80039 1911 ft 152 kts 93°
2026-04-25 15:16 11.14660 -60.77782 3658 ft 183 kts 94°
2026-04-25 15:17 11.14563 -60.74862 4954 ft 226 kts 94°
2026-04-25 15:17 11.14509 -60.73171 5480 ft 252 kts 93°
2026-04-25 15:17 11.14730 -60.71344 5870 ft 284 kts 72°
2026-04-25 15:18 11.15835 -60.69526 6160 ft 323 kts 47°
2026-04-25 15:18 11.20106 -60.67768 7874 ft 352 kts
2026-04-25 15:18 11.22514 -60.68222 9052 ft 355 kts 338°
2026-04-25 15:19 11.24652 -60.69519 10045 ft 361 kts 317°
2026-04-25 15:19 11.25260 -60.70118 10385 ft 361 kts 313°
2026-04-25 15:19 11.27915 -60.73487 11837 ft 373 kts 305°
2026-04-25 15:19 11.29463 -60.75637 12805 ft 378 kts 304°
2026-04-25 15:20 11.31000 -60.77808 13925 ft 378 kts 304°
2026-04-25 15:20 11.32546 -60.80004 14800 ft 384 kts 304°
2026-04-25 15:20 11.34281 -60.82039 15589 ft 384 kts 321°
2026-04-25 15:20 11.36655 -60.83289 16492 ft 389 kts 345°
2026-04-25 15:21 11.39292 -60.83639 17320 ft 387 kts 356°
2026-04-25 15:21 11.42004 -60.83880 18071 ft 395 kts 354°
2026-04-25 15:21 11.44751 -60.84209 18869 ft 398 kts 353°
2026-04-25 15:21 11.47523 -60.84582 19530 ft 404 kts 352°
2026-04-25 15:22 11.50324 -60.84979 20236 ft 408 kts 352°
2026-04-25 15:22 11.53144 -60.85388 20963 ft 412 kts 351°
2026-04-25 15:22 11.56037 -60.85812 21268 ft 427 kts 351°
2026-04-25 15:22 11.58966 -60.86241 22229 ft 419 kts 351°
2026-04-25 15:23 11.61823 -60.86660 23261 ft 412 kts 351°
2026-04-25 15:23 11.64645 -60.87073 23826 ft 410 kts 351°
2026-04-25 15:23 11.67473 -60.87488 23987 ft 412 kts 351°
2026-04-25 15:23 11.70305 -60.87903 23981 ft 409 kts 351°
2026-04-25 15:24 11.73123 -60.88315 23986 ft 409 kts 351°
2026-04-25 15:24 11.75996 -60.88736 24001 ft 426 kts 351°
2026-04-25 15:24 11.78953 -60.89170 24006 ft 442 kts 351°
2026-04-25 15:24 11.79989 -60.89321 24006 ft 447 kts 351°
2026-04-25 15:25 11.84183 -60.89936 23998 ft 465 kts 351°
2026-04-25 15:25 11.88490 -60.90567 24000 ft 478 kts 351°
2026-04-25 15:25 11.91789 -60.91050 23995 ft 480 kts 351°
2026-04-25 15:25 11.95087 -60.91532 23986 ft 475 kts 351°
2026-04-25 15:26 11.98349 -60.92009 23975 ft 473 kts 351°
2026-04-25 15:26 12.01603 -60.92485 23977 ft 472 kts 351°
2026-04-25 15:26 12.04860 -60.92962 23982 ft 473 kts 351°
2026-04-25 15:26 12.08129 -60.93442 23986 ft 476 kts 351°
2026-04-25 15:27 12.11405 -60.93922 23992 ft 477 kts 351°
2026-04-25 15:27 12.14701 -60.94406 23987 ft 479 kts 351°
2026-04-25 15:27 12.21299 -60.95374 23984 ft 478 kts 351°
2026-04-25 15:28 12.24593 -60.95858 23985 ft 478 kts 351°
2026-04-25 15:28 12.27846 -60.96336 23986 ft 477 kts 351°
2026-04-25 15:28 12.31134 -60.96819 23987 ft 477 kts 351°
2026-04-25 15:28 12.34419 -60.97301 23989 ft 477 kts 351°
2026-04-25 15:29 12.37664 -60.97778 23979 ft 461 kts 351°
2026-04-25 15:29 12.40772 -60.98233 23968 ft 440 kts 351°
2026-04-25 15:29 12.43737 -60.98668 23967 ft 421 kts 351°
2026-04-25 15:29 12.46696 -60.99103 23417 ft 441 kts 351°
2026-04-25 15:30 12.49742 -60.99553 22805 ft 441 kts 351°
2026-04-25 15:30 12.52768 -60.99998 22259 ft 435 kts 351°
2026-04-25 15:30 12.55745 -61.00436 21748 ft 429 kts 351°
2026-04-25 15:30 12.58681 -61.00868 21247 ft 424 kts 351°
2026-04-25 15:31 12.61581 -61.01295 20768 ft 418 kts 351°
2026-04-25 15:31 12.64449 -61.01718 20278 ft 414 kts 351°
2026-04-25 15:31 12.67286 -61.02136 19810 ft 410 kts 351°
2026-04-25 15:31 12.70098 -61.02550 19327 ft 407 kts 351°
2026-04-25 15:32 12.72888 -61.02961 18855 ft 404 kts 351°
2026-04-25 15:32 12.75663 -61.03370 18375 ft 401 kts 351°
2026-04-25 15:32 12.78417 -61.03777 17855 ft 399 kts 351°
2026-04-25 15:33 12.83870 -61.04581 16873 ft 392 kts 351°
2026-04-25 15:33 12.86557 -61.04977 16400 ft 389 kts 351°
2026-04-25 15:33 12.89223 -61.05371 15932 ft 385 kts 351°
2026-04-25 15:33 12.91869 -61.05762 15461 ft 383 kts 351°
2026-04-25 15:34 12.94462 -61.06144 15004 ft 380 kts 351°
2026-04-25 15:34 12.97076 -61.06531 14534 ft 379 kts 351°
2026-04-25 15:34 12.99680 -61.06915 14051 ft 377 kts 351°
2026-04-25 15:34 13.00560 -61.07045 13893 ft 377 kts 351°
2026-04-25 15:35 13.07416 -61.08058 12550 ft 370 kts 351°
2026-04-25 15:35 13.09954 -61.08433 12093 ft 367 kts 351°
2026-04-25 15:35 13.12472 -61.08806 11625 ft 364 kts 351°
2026-04-25 15:36 13.17454 -61.09543 10715 ft 358 kts 351°
2026-04-25 15:36 13.19900 -61.09905 10403 ft 351 kts 351°
2026-04-25 15:36 13.22278 -61.10256 10246 ft 339 kts 351°
2026-04-25 15:37 13.24553 -61.10593 10088 ft 329 kts 352°
2026-04-25 15:37 13.26785 -61.10923 9884 ft 321 kts 351°
2026-04-25 15:37 13.28965 -61.11246 9690 ft 313 kts 351°
2026-04-25 15:37 13.31095 -61.11562 9508 ft 305 kts 351°
2026-04-25 15:38 13.33199 -61.11873 8995 ft 309 kts 352°
2026-04-25 15:38 13.35332 -61.12189 8624 ft 308 kts 352°
2026-04-25 15:38 13.37426 -61.12500 8454 ft 300 kts 352°
2026-04-25 15:38 13.39469 -61.12926 7989 ft 302 kts 343°
2026-04-25 15:39 13.41469 -61.13610 7634 ft 302 kts 340°
2026-04-25 15:39 13.43413 -61.14336 7329 ft 299 kts 340°
2026-04-25 15:39 13.45372 -61.15064 6987 ft 299 kts 340°
2026-04-25 15:39 13.47353 -61.15784 6632 ft 299 kts 341°
2026-04-25 15:40 13.49290 -61.16476 6315 ft 297 kts 341°
2026-04-25 15:40 13.49952 -61.16710 6198 ft 297 kts 341°
2026-04-25 15:40 13.53182 -61.17845 5705 ft 293 kts 342°
2026-04-25 15:40 13.54467 -61.18294 5420 ft 295 kts 342°
2026-04-25 15:41 13.56396 -61.18967 5134 ft 292 kts 342°
2026-04-25 15:41 13.58319 -61.19636 4860 ft 289 kts 342°
2026-04-25 15:41 13.60282 -61.20309 4728 ft 296 kts 345°
2026-04-25 15:41 13.62253 -61.20499 4374 ft 277 kts 13°
2026-04-25 15:42 13.63968 -61.19756 3978 ft 267 kts 36°
2026-04-25 15:42 13.65313 -61.18558 3562 ft 246 kts 52°
2026-04-25 15:42 13.66299 -61.17248 3410 ft 219 kts 57°
2026-04-25 15:42 13.67149 -61.16021 3276 ft 208 kts 58°
2026-04-25 15:43 13.67999 -61.14790 3175 ft 210 kts 58°
2026-04-25 15:43 13.68848 -61.13572 3028 ft 208 kts 58°
2026-04-25 15:43 13.69696 -61.12366 2719 ft 209 kts 57°
2026-04-25 15:43 13.70548 -61.11161 2497 ft 207 kts 58°
2026-04-25 15:44 13.71405 -61.09950 2179 ft 210 kts 57°
2026-04-25 15:44 13.72242 -61.08772 2101 ft 205 kts 58°
2026-04-25 15:44 13.72879 -61.07499 2006 ft 196 kts 82°
2026-04-25 15:44 13.73013 -61.06229 2000 ft 166 kts 86°
2026-04-25 15:45 13.73180 -61.05143 1994 ft 146 kts 84°
2026-04-25 15:45 13.73341 -61.04115 2007 ft 147 kts 84°
2026-04-25 15:45 13.73500 -61.03082 1998 ft 143 kts 87°
2026-04-25 15:45 13.73502 -61.02396 1636 ft 149 kts 101°
2026-04-25 15:46 13.73286 -61.01078 1150 ft 131 kts 92°
2026-04-25 15:46 13.73314 -61.00145 971 ft 129 kts 92°
2026-04-25 15:46 13.73325 -60.99231 817 ft 130 kts 94°
2026-04-25 15:46 13.73313 -60.98299 633 ft 131 kts 89°
2026-04-25 15:47 13.73326 -60.97373 375 ft 130 kts 92°
2026-04-25 15:47 13.73339 -60.96464 65 ft 122 kts 94°
2026-04-25 15:47 13.73337 -60.95659 26 ft 98 kts 91°
2026-04-25 15:47 13.73339 -60.95125 20 ft 64 kts 88°
2026-04-25 15:48 13.73333 -60.94714 20 ft 36 kts 91°
2026-04-25 15:48 13.73349 -60.94577 20 ft 13 kts 60°
2026-04-25 15:48 13.73430 -60.94572 24 ft 13 kts 331°
2026-04-25 15:48 13.73504 -60.94622 24 ft 13 kts 321°
2026-04-25 15:49 13.73561 -60.94691 22 ft 13 kts 291°
2026-04-25 15:49 13.73562 -60.94783 21 ft 13 kts 268°
2026-04-25 15:49 13.73533 -60.94867 24 ft 13 kts 234°
2026-04-25 15:49 13.73517 -60.94955 21 ft 13 kts 269°
2026-04-25 15:50 13.73518 -60.95047 21 ft 7 kts 271°
2026-04-25 15:50 13.73518 -60.95049 21 ft 0 kts 271°